• In Hungary
  • List of Countries
  • For 7 days
  • Water Temperature
  • Satellite Maps
  • Weather Map
  • News
  • Weather Widgets
  • user-avatar
    Login

    Hourly Weather Puerto Momotombo

    Today, 16 December, Saturday

    Time Temperature Precipitation Wind Pressure Humidity
    00:00 +24°C° 0 mm 3 mps 733 mmHg 78%
    01:00 +24°C° 0 mm 3 mps 733 mmHg 79%
    02:00 +24°C° 0 mm 3 mps 733 mmHg 80%
    03:00 +24°C° 0 mm 3 mps 733 mmHg 81%
    04:00 +24°C° 0 mm 3 mps 733 mmHg 81%
    05:00 +24°C° 0 mm 3 mps 733 mmHg 82%
    06:00 +24°C° 0 mm 3 mps 733 mmHg 82%
    07:00 +26°C° 0 mm 4 mps 734 mmHg 74%
    08:00 +28°C° 0 mm 5 mps 734 mmHg 66%
    09:00 +30°C° 0 mm 6 mps 734 mmHg 58%
    10:00 +32°C° 0 mm 6 mps 734 mmHg 55%
    11:00 +33°C° 0 mm 6 mps 733 mmHg 52%
    12:00 +34°C° 0 mm 7 mps 733 mmHg 48%
    13:00 +34°C° 0 mm 7 mps 732 mmHg 48%
    14:00 +34°C° 0 mm 7 mps 732 mmHg 48%
    15:00 +34°C° 0 mm 7 mps 731 mmHg 48%
    16:00 +32°C° 0 mm 6 mps 731 mmHg 52%
    17:00 +29°C° 0 mm 5 mps 732 mmHg 57%
    18:00 +28°C° 0 mm 4 mps 732 mmHg 62%
    19:00 +27°C° 0 mm 4 mps 732 mmHg 66%
    20:00 +26°C° 0 mm 4 mps 733 mmHg 69%
    21:00 +26°C° 0 mm 4 mps 733 mmHg 73%
    22:00 +25°C° 0 mm 4 mps 733 mmHg 73%
    23:00 +25°C° 0 mm 4 mps 733 mmHg 74%

    Tomorrow, 17 December, Sunday

    Time Temperature Precipitation Wind Pressure Humidity
    00:00 +23°C° 0 mm 4 mps 733 mmHg 75%
    01:00 +23°C° 0 mm 4 mps 733 mmHg 75%
    02:00 +23°C° 0 mm 4 mps 733 mmHg 75%
    03:00 +22°C° 0 mm 4 mps 732 mmHg 76%
    04:00 +22°C° 0 mm 4 mps 733 mmHg 76%
    05:00 +23°C° 0 mm 4 mps 733 mmHg 76%
    06:00 +24°C° 0 mm 3 mps 733 mmHg 76%
    07:00 +26°C° 0 mm 4 mps 734 mmHg 69%
    08:00 +28°C° 0 mm 5 mps 734 mmHg 63%
    09:00 +30°C° 0 mm 6 mps 735 mmHg 56%
    10:00 +32°C° 0 mm 7 mps 734 mmHg 54%
    11:00 +33°C° 0 mm 7 mps 734 mmHg 51%
    12:00 +34°C° 0 mm 7 mps 734 mmHg 48%
    13:00 +34°C° 0 mm 7 mps 733 mmHg 49%
    14:00 +33°C° 0 mm 7 mps 732 mmHg 49%
    15:00 +33°C° 0 mm 7 mps 731 mmHg 49%
    16:00 +32°C° 0 mm 6 mps 732 mmHg 54%
    17:00 +29°C° 0 mm 5 mps 732 mmHg 59%
    18:00 +28°C° 0 mm 5 mps 732 mmHg 64%
    19:00 +27°C° 0 mm 4 mps 732 mmHg 66%
    20:00 +27°C° 0 mm 4 mps 733 mmHg 69%
    21:00 +26°C° 0 mm 4 mps 733 mmHg 71%
    22:00 +26°C° 0 mm 4 mps 733 mmHg 72%
    23:00 +26°C° 0 mm 4 mps 733 mmHg 72%

    Day after tomorrow, 18 December, Monday

    Time Temperature Precipitation Wind Pressure Humidity
    00:00 +26°C° 0 mm 4 mps 733 mmHg 72%
    01:00 +26°C° 0 mm 4 mps 733 mmHg 73%
    02:00 +26°C° 0 mm 4 mps 732 mmHg 74%
    03:00 +25°C° 0 mm 4 mps 732 mmHg 74%
    04:00 +25°C° 0 mm 3 mps 732 mmHg 75%
    05:00 +25°C° 0 mm 3 mps 732 mmHg 76%
    06:00 +25°C° 0 mm 3 mps 733 mmHg 77%
    07:00 +27°C° 0 mm 5 mps 733 mmHg 70%
    08:00 +29°C° 0 mm 6 mps 734 mmHg 63%
    09:00 +30°C° 0 mm 7 mps 735 mmHg 57%
    10:00 +32°C° 0 mm 7 mps 735 mmHg 52%
    11:00 +33°C° 0 mm 8 mps 734 mmHg 48%
    12:00 +34°C° 0 mm 8 mps 734 mmHg 43%
    13:00 +34°C° 0 mm 7 mps 733 mmHg 43%
    14:00 +34°C° 0 mm 7 mps 732 mmHg 43%
    15:00 +34°C° 0 mm 6 mps 731 mmHg 43%
    16:00 +33°C° 0 mm 6 mps 732 mmHg 49%
    17:00 +30°C° 0 mm 5 mps 732 mmHg 55%
    18:00 +28°C° 0 mm 5 mps 732 mmHg 61%
    19:00 +28°C° 0 mm 4 mps 733 mmHg 64%
    20:00 +27°C° 0 mm 4 mps 734 mmHg 68%
    21:00 +26°C° 0 mm 4 mps 734 mmHg 72%
    22:00 +26°C° 0 mm 4 mps 734 mmHg 73%
    23:00 +26°C° 0 mm 4 mps 734 mmHg 73%

    19 December, Tuesday

    Time Temperature Precipitation Wind Pressure Humidity
    00:00 +26°C° 0 mm 3 mps 734 mmHg 74%
    01:00 +25°C° 0 mm 3 mps 733 mmHg 76%
    02:00 +25°C° 0 mm 3 mps 733 mmHg 77%
    03:00 +25°C° 0 mm 3 mps 732 mmHg 78%
    04:00 +25°C° 0 mm 3 mps 733 mmHg 78%
    05:00 +25°C° 0 mm 3 mps 733 mmHg 78%
    06:00 +25°C° 0 mm 3 mps 733 mmHg 78%
    07:00 +27°C° 0 mm 4 mps 734 mmHg 71%
    08:00 +28°C° 0 mm 5 mps 734 mmHg 64%
    09:00 +30°C° 0 mm 6 mps 735 mmHg 57%
    10:00 +32°C° 0 mm 6 mps 734 mmHg 55%
    11:00 +33°C° 0 mm 6 mps 734 mmHg 52%
    12:00 +34°C° 0 mm 6 mps 733 mmHg 50%
    13:00 +33°C° 0 mm 6 mps 733 mmHg 50%
    14:00 +33°C° 0 mm 6 mps 732 mmHg 51%
    15:00 +33°C° 0 mm 5 mps 731 mmHg 52%
    16:00 +30°C° 0 mm 5 mps 731 mmHg 57%
    17:00 +29°C° 0 mm 4 mps 732 mmHg 61%
    18:00 +27°C° 0 mm 3 mps 732 mmHg 66%
    19:00 +27°C° 0 mm 3 mps 733 mmHg 69%
    20:00 +26°C° 0 mm 3 mps 733 mmHg 73%
    21:00 +25°C° 0 mm 3 mps 734 mmHg 76%
    22:00 +25°C° 0 mm 3 mps 734 mmHg 76%
    23:00 +25°C° 0 mm 3 mps 733 mmHg 77%

    20 December, Wednesday

    Time Temperature Precipitation Wind Pressure Humidity
    00:00 +25°C° 0 mm 3 mps 733 mmHg 77%
    01:00 +25°C° 0 mm 3 mps 733 mmHg 77%
    02:00 +25°C° 0 mm 3 mps 733 mmHg 78%
    03:00 +24°C° 0 mm 3 mps 732 mmHg 79%
    04:00 +24°C° 0 mm 2 mps 732 mmHg 79%
    05:00 +24°C° 0 mm 2 mps 733 mmHg 80%
    06:00 +24°C° 0 mm 2 mps 733 mmHg 81%
    07:00 +26°C° 0 mm 3 mps 734 mmHg 73%
    08:00 +28°C° 0 mm 4 mps 734 mmHg 65%
    09:00 +30°C° 0 mm 5 mps 735 mmHg 58%
    10:00 +32°C° 0 mm 5 mps 734 mmHg 53%
    11:00 +33°C° 0 mm 5 mps 734 mmHg 48%
    12:00 +34°C° 0 mm 5 mps 733 mmHg 43%
    13:00 +35°C° 0 mm 5 mps 732 mmHg 42%
    14:00 +35°C° 0 mm 5 mps 731 mmHg 42%
    15:00 +35°C° 0 mm 5 mps 731 mmHg 42%
    16:00 +33°C° 0 mm 4 mps 731 mmHg 48%
    17:00 +30°C° 0 mm 4 mps 731 mmHg 55%
    18:00 +28°C° 0 mm 3 mps 731 mmHg 61%
    19:00 +28°C° 0 mm 3 mps 732 mmHg 65%
    20:00 +27°C° 0 mm 4 mps 732 mmHg 68%
    21:00 +26°C° 0 mm 4 mps 733 mmHg 72%
    22:00 +26°C° 0 mm 3 mps 733 mmHg 73%
    23:00 +25°C° 0 mm 3 mps 732 mmHg 75%

    21 December, Thursday

    Time Temperature Precipitation Wind Pressure Humidity
    00:00 +25°C° 0 mm 3 mps 732 mmHg 76%
    01:00 +25°C° 0 mm 3 mps 732 mmHg 77%
    02:00 +25°C° 0 mm 3 mps 732 mmHg 78%
    03:00 +24°C° 0 mm 3 mps 731 mmHg 79%
    04:00 +24°C° 0 mm 3 mps 732 mmHg 79%
    05:00 +24°C° 0 mm 3 mps 732 mmHg 80%
    06:00 +24°C° 0 mm 3 mps 732 mmHg 81%
    07:00 +26°C° 0 mm 4 mps 733 mmHg 72%
    08:00 +28°C° 0 mm 4 mps 734 mmHg 64%
    09:00 +30°C° 0 mm 5 mps 734 mmHg 56%
    10:00 +32°C° 0 mm 6 mps 734 mmHg 53%
    11:00 +33°C° 0 mm 6 mps 733 mmHg 49%
    12:00 +35°C° 0 mm 6 mps 733 mmHg 45%
    13:00 +34°C° 0 mm 6 mps 732 mmHg 45%
    14:00 +34°C° 0 mm 6 mps 731 mmHg 46%
    15:00 +34°C° 0 mm 6 mps 731 mmHg 46%
    16:00 +32°C° 0 mm 5 mps 731 mmHg 50%
    17:00 +30°C° 0 mm 5 mps 731 mmHg 55%
    18:00 +28°C° 0 mm 4 mps 732 mmHg 59%
    19:00 +27°C° 0 mm 4 mps 732 mmHg 63%
    20:00 +27°C° 0 mm 4 mps 732 mmHg 67%
    21:00 +26°C° 0 mm 3 mps 733 mmHg 70%
    22:00 +26°C° 0 mm 3 mps 733 mmHg 72%
    23:00 +25°C° 0 mm 3 mps 732 mmHg 73%
    Show more